Probability
90 97 100 100 100 100 100 100 100 100 100 100 100 100 100 100 100 100 100 100 100 100 100 100 100 100 100 100 100 100 100 100 100 100 100 100 100 100 100 100 100 97 100
87 97 100 100 100 100 100 100 100 100 100 100 100 100 100 100 100 100 100 100 100 100 100 100 100 100 100 100 100 100 100 100 100 100 100 100 100 100 100 100 100 100 100
90 97 97 100 100 100 100 100 100 100 100 100 100 100 100 100 100 100 100 100 100 100 100 100 100 100 100 100 100 100 100 100 100 100 100 100 100 100 100 100 100 100 100
94 97 97 100 100 100 100 100 100 100 100 100 100 100 100 100 100 100 100 100 100 100 100 100 100 100 100 100 100 100 100 100 100 100 68 87 100 100 100 100 100 100 100
94 97 97 100 100 100 100 100 100 100 100 100 100 100 100 100 100 100 100 100 100 100 100 100 100 100 100 100 100 100 100 100 97 94 45 48 90 100 100 100 100 100 100
94 97 100 100 100 100 100 100 100 100 100 100 100 100 100 100 100 100 100 100 100 100 100 100 100 100 100 100 100 100 97 94 74 52 39 58 87 100 100 100 100 100 100
94 100 100 100 100 100 100 100 100 100 100 100 100 100 100 100 100 100 100 100 100 100 100 100 100 100 100 100 97 97 97 94 45 23 32 45 87 100 100 100 97 97 100
94 100 100 100 100 100 100 100 100 100 100 100 100 100 100 100 100 100 100 100 100 100 100 100 100 100 97 87 87 90 87 84 52 35 23 29 81 97 100 100 100 100 97
90 90 90 97 100 100 100 100 100 100 100 100 100 100 100 100 100 100 100 100 100 100 100 97 97 90 87 84 77 81 84 81 10 16 23 35 87 97 100 100 100 100 97
84 87 90 90 94 100 100 100 100 100 100 100 100 100 100 97 97 97 97 97 100 100 97 90 90 90 94 77 84 77 84 55 3 0 3 48 90 97 100 97 97 90 90
84 87 84 81 87 90 97 100 100 100 100 97 97 97 97 97 97 97 97 97 97 94 90 90 94 94 90 81 84 87 71 10 0 0 0 68 90 90 90 97 97 90 81
77 71 74 77 81 90 87 90 90 90 94 90 97 97 97 97 94 97 97 97 94 90 87 87 87 84 77 55 45 71 29 0 0 0 10 84 94 94 87 94 90 84 81
65 61 61 61 71 77 81 84 81 81 81 84 87 90 77 71 74 81 77 87 87 84 74 77 74 61 52 19 6 6 10 0 0 0 23 84 87 94 84 90 84 77 74
58 52 48 52 61 68 71 77 74 77 77 77 71 74 58 52 42 39 55 65 58 58 45 35 39 35 23 16 3 0 3 0 3 6 16 77 81 87 81 81 81 74 65
45 45 45 48 48 55 61 61 61 55 58 55 55 58 48 35 32 26 29 32 32 16 13 13 10 10 13 3 6 0 0 3 3 6 13 81 87 90 81 74 65 61 52
45 32 26 42 45 35 39 42 39 35 35 39 42 35 29 26 29 19 16 13 13 16 6 10 10 3 3 0 0 0 0 6 0 6 6 35 74 71 65 71 65 52 42
39 39 29 29 32 29 26 29 26 23 29 29 26 26 19 19 16 16 13 10 10 3 6 6 6 0 0 0 0 0 0 0 0 0 0 3 16 48 45 42 45 39 32
45 32 29 32 26 23 19 19 19 23 23 19 19 19 13 23 16 13 16 10 3 3 3 3 3 0 0 0 0 0 0 0 0 0 0 0 3 3 19 23 26 26 26
39 19 26 19 26 26 26 26 19 19 13 10 10 13 10 16 19 16 16 6 3 3 3 3 0 0 0 0 0 0 0 0 0 0 0 0 0 0 3 3 19 13 16
32 23 29 29 23 16 19 19 19 16 16 10 6 13 10 10 13 10 6 6 6 3 0 0 0 0 0 0 0 0 0 0 0 0 0 0 0 0 0 0 0 0 6
29 32 29 32 26 23 16 16 13 16 16 13 6 3 6 6 6 6 3 3 6 6 3 3 0 0 0 0 0 0 0 0 0 0 0 0 0 0 0 0 0 0 0
26 29 29 35 29 26 23 19 19 10 10 6 3 3 0 0 3 3 3 3 0 3 3 3 0 0 0 0 0 0 0 0 0 0 0 0 0 0 0 0 0 0 0
23 19 23 23 26 23 26 19 13 10 10 6 3 3 0 0 0 0 0 0 0 0 3 0 0 0 0 0 0 0 0 0 0 0 0 0 0 0 0 0 0 0 0
19 23 23 19 19 23 19 16 13 6 6 6 6 3 0 0 0 0 0 0 0 0 0 0 0 0 0 0 0 0 0 0 0 0 0 0 0 0 0 0 0 0 0
13 16 19 16 13 13 6 6 3 6 6 6 6 3 3 0 0 0 0 0 0 0 0 0 0 0 0 0 0 0 0 0 0 0 0 0 0 0 0 0 0 0 0
13 16 16 13 6 6 6 3 3 3 0 6 3 3 0 0 0 0 0 0 0 0 0 0 0 0 0 0 0 0 0 0 0 0 0 0 0 0 0 0 0 0 0
Height
5895 5895 5895 5896 5896 5897 5898 5898 5899 5900 5900 5901 5901 5902 5902 5903 5903 5903 5904 5904 5903 5903 5902 5901 5901 5900 5899 5899 5898 5897 5897 5897 5896 5896 5895 5895 5894 5893 5893 5892 5891 5890 5889
5893 5893 5894 5894 5895 5896 5896 5897 5898 5899 5899 5900 5900 5901 5901 5902 5902 5902 5903 5902 5902 5902 5901 5901 5900 5899 5899 5898 5898 5897 5897 5896 5896 5896 5895 5895 5894 5893 5892 5891 5891 5890 5889
5891 5891 5892 5893 5893 5894 5895 5895 5896 5897 5898 5898 5899 5899 5900 5900 5901 5901 5901 5901 5901 5901 5900 5900 5899 5899 5898 5897 5897 5896 5896 5896 5895 5895 5895 5894 5893 5892 5892 5891 5891 5890 5890
5889 5889 5890 5891 5891 5892 5893 5894 5894 5895 5896 5897 5897 5898 5898 5899 5899 5900 5900 5900 5900 5900 5899 5899 5898 5898 5897 5897 5896 5896 5895 5895 5895 5894 5894 5893 5893 5892 5892 5891 5891 5890 5890
5887 5887 5887 5888 5889 5890 5890 5891 5892 5893 5894 5895 5896 5896 5897 5897 5898 5898 5898 5898 5898 5898 5898 5897 5897 5896 5896 5896 5895 5895 5894 5894 5894 5894 5893 5893 5893 5892 5891 5891 5891 5890 5890
5884 5884 5885 5885 5886 5887 5888 5889 5889 5890 5891 5892 5893 5894 5894 5895 5896 5896 5896 5896 5896 5896 5896 5896 5895 5895 5895 5895 5894 5894 5893 5893 5893 5893 5892 5892 5892 5892 5891 5891 5890 5890 5889
5880 5881 5882 5882 5882 5883 5885 5886 5887 5888 5889 5890 5891 5891 5892 5892 5893 5893 5894 5894 5894 5894 5894 5894 5894 5893 5893 5893 5893 5893 5892 5892 5892 5892 5892 5892 5892 5891 5891 5890 5890 5890 5889
5877 5878 5878 5879 5879 5880 5882 5883 5884 5885 5886 5886 5887 5888 5889 5889 5890 5890 5891 5891 5892 5892 5892 5892 5892 5892 5892 5892 5892 5892 5891 5891 5891 5891 5891 5891 5891 5891 5890 5890 5889 5889 5889
5875 5875 5875 5876 5876 5877 5878 5879 5880 5881 5882 5883 5884 5885 5885 5886 5887 5887 5888 5888 5889 5889 5889 5889 5889 5889 5889 5890 5890 5890 5890 5890 5890 5890 5890 5890 5890 5890 5889 5889 5888 5888 5887
5872 5872 5872 5872 5873 5874 5874 5875 5876 5877 5878 5879 5880 5881 5882 5882 5883 5884 5884 5885 5885 5885 5886 5886 5886 5886 5887 5887 5887 5888 5888 5888 5888 5888 5888 5889 5889 5888 5888 5888 5887 5887 5886
5868 5868 5868 5868 5869 5870 5871 5872 5872 5873 5874 5875 5876 5877 5878 5878 5879 5879 5880 5881 5881 5882 5882 5882 5883 5883 5884 5884 5885 5885 5886 5887 5886 5886 5887 5887 5886 5886 5886 5886 5886 5885 5884
5864 5864 5864 5865 5865 5866 5867 5868 5869 5869 5870 5871 5872 5872 5873 5874 5875 5875 5876 5876 5877 5877 5878 5879 5879 5879 5880 5880 5881 5882 5883 5884 5884 5884 5884 5884 5884 5884 5884 5884 5884 5883 5882
5860 5860 5859 5861 5861 5862 5863 5864 5865 5866 5866 5867 5867 5868 5869 5870 5870 5871 5871 5871 5872 5873 5873 5874 5875 5875 5876 5877 5878 5879 5880 5881 5881 5881 5881 5882 5882 5882 5882 5881 5881 5881 5880
5855 5856 5857 5857 5858 5858 5858 5859 5860 5861 5862 5862 5863 5864 5865 5865 5865 5866 5866 5867 5867 5868 5869 5869 5870 5871 5872 5873 5874 5875 5876 5877 5878 5878 5878 5879 5879 5879 5879 5879 5879 5878 5878
5850 5852 5852 5852 5853 5853 5853 5853 5854 5856 5857 5857 5858 5859 5860 5860 5860 5861 5861 5861 5862 5862 5863 5864 5865 5866 5867 5868 5869 5871 5872 5873 5874 5875 5875 5875 5875 5876 5876 5876 5875 5875 5875
5846 5847 5846 5848 5848 5848 5848 5848 5849 5850 5851 5852 5853 5854 5854 5854 5855 5855 5855 5856 5856 5857 5857 5858 5860 5861 5862 5864 5865 5866 5867 5869 5870 5870 5871 5871 5871 5872 5872 5872 5872 5872 5871
5839 5839 5840 5842 5842 5842 5842 5842 5843 5844 5845 5846 5847 5847 5848 5848 5849 5849 5850 5850 5851 5851 5852 5853 5854 5856 5857 5859 5860 5861 5863 5864 5865 5866 5866 5866 5867 5867 5868 5868 5868 5868 5868
5833 5833 5834 5836 5836 5836 5835 5835 5837 5838 5839 5840 5840 5841 5842 5842 5843 5843 5844 5844 5845 5845 5846 5847 5848 5850 5851 5853 5854 5856 5857 5859 5859 5860 5861 5861 5862 5863 5863 5863 5863 5863 5863
5827 5827 5828 5828 5827 5829 5830 5830 5831 5832 5833 5833 5833 5834 5835 5836 5837 5837 5838 5838 5839 5840 5841 5841 5843 5844 5846 5847 5848 5850 5851 5853 5853 5854 5855 5856 5856 5857 5857 5858 5858 5858 5858
5821 5821 5821 5820 5821 5822 5822 5823 5824 5826 5826 5827 5827 5829 5830 5830 5831 5831 5832 5833 5833 5834 5835 5836 5838 5839 5840 5841 5843 5844 5846 5847 5847 5849 5849 5850 5850 5851 5851 5852 5852 5852 5852
5814 5814 5814 5814 5815 5815 5816 5817 5819 5820 5821 5821 5822 5822 5823 5824 5825 5826 5827 5827 5827 5828 5830 5831 5832 5833 5834 5836 5837 5838 5839 5841 5842 5843 5843 5844 5844 5845 5845 5845 5846 5846 5845
5808 5807 5808 5808 5808 5809 5810 5812 5812 5813 5813 5814 5815 5816 5816 5816 5818 5819 5820 5821 5822 5823 5824 5825 5826 5827 5828 5829 5831 5831 5833 5834 5835 5836 5837 5838 5838 5838 5839 5839 5839 5839 5838
5802 5802 5802 5803 5803 5803 5804 5805 5806 5806 5805 5806 5808 5809 5808 5810 5811 5812 5814 5815 5816 5817 5818 5819 5820 5821 5822 5823 5825 5826 5827 5827 5828 5829 5830 5832 5832 5832 5832 5832 5832 5831 5831
5796 5796 5796 5796 5796 5796 5797 5798 5799 5799 5799 5800 5800 5801 5802 5803 5804 5806 5807 5808 5809 5810 5811 5811 5813 5814 5815 5816 5817 5819 5821 5821 5822 5822 5823 5824 5825 5825 5825 5825 5824 5824 5823
5790 5790 5790 5789 5789 5790 5790 5790 5791 5792 5793 5794 5795 5796 5797 5797 5798 5799 5800 5801 5802 5803 5803 5804 5806 5807 5808 5809 5810 5811 5812 5814 5815 5815 5816 5817 5817 5817 5817 5817 5816 5815 5814
5784 5784 5783 5783 5783 5783 5782 5783 5783 5785 5786 5787 5788 5789 5790 5791 5791 5792 5794 5795 5795 5795 5796 5797 5798 5800 5801 5802 5803 5804 5805 5806 5807 5808 5808 5809 5809 5809 5809 5808 5807 5806 5805
Wind_Speed
9 7 5 5 6 8 10 10 11 12 12 13 13 13 12 11 11 10 10 10 9 9 8 7 7 6 5 4 4 3 2 2 2 1 1 0 1 1 2 3 3 4 4
10 7 6 7 7 8 10 12 13 13 14 14 14 13 13 12 12 12 12 11 11 10 9 8 8 7 6 5 4 3 3 2 2 2 1 0 1 1 2 3 3 4 4
9 8 8 8 9 10 11 13 14 15 15 15 15 15 14 14 13 13 13 12 12 12 11 10 9 8 7 6 5 4 4 3 2 2 1 0 1 2 2 2 3 3 3
10 10 10 10 11 11 12 14 15 16 16 17 16 16 16 15 14 14 14 14 13 13 12 11 10 9 8 7 6 5 4 4 3 2 2 1 1 1 2 2 2 2 2
12 12 11 12 12 13 13 14 15 16 17 18 18 17 17 16 16 15 15 15 14 14 13 12 11 10 9 8 7 6 5 4 4 4 2 2 1 1 1 1 1 1 1
13 12 12 12 13 14 14 15 16 17 18 18 18 18 18 17 17 16 16 15 15 15 14 13 12 11 10 9 8 7 6 5 5 4 4 3 2 1 1 1 1 1 1
14 13 13 13 13 13 15 16 17 18 18 19 18 18 18 18 18 17 16 16 16 15 15 15 14 13 12 11 9 8 7 7 6 5 5 5 4 3 2 2 2 2 2
15 14 14 14 13 13 14 16 17 18 19 20 20 20 19 18 18 17 17 17 16 16 16 16 15 14 13 12 10 9 8 8 7 7 6 6 6 5 4 3 3 3 3
16 15 15 14 14 14 15 16 18 18 18 19 20 20 20 20 19 18 18 17 17 17 17 17 16 15 14 13 12 10 9 8 8 7 7 8 7 6 6 5 4 4 4
17 17 17 16 15 16 16 17 18 18 19 19 20 20 20 20 20 20 19 18 18 18 18 18 17 17 16 14 13 12 10 10 10 9 10 9 8 8 7 7 6 6 6
19 19 19 19 18 17 17 17 18 19 20 19 19 20 20 20 20 20 19 19 19 19 19 19 18 18 17 16 15 13 12 11 11 11 11 11 10 9 9 8 8 8 8
22 22 22 22 21 20 19 18 19 19 20 21 20 20 21 21 21 21 21 20 21 21 21 20 20 20 19 18 16 14 13 12 12 12 12 12 12 11 11 10 10 10 9
23 24 22 22 23 23 22 21 20 20 20 21 21 20 20 21 21 21 21 21 22 22 22 22 22 21 20 19 18 16 15 13 13 14 14 14 14 13 13 12 12 12 11
25 25 25 24 23 23 22 22 22 21 21 21 22 21 20 20 21 21 21 22 22 23 23 23 23 23 22 20 19 18 16 15 15 15 16 16 15 14 14 14 14 13 13
27 27 27 26 24 23 22 23 23 22 22 22 22 22 21 21 21 22 23 24 24 24 25 25 24 24 23 22 21 19 18 17 17 17 17 18 17 17 16 16 16 15 14
28 28 27 26 26 25 24 24 25 23 22 22 24 23 23 23 23 23 23 24 24 24 26 26 24 24 23 22 21 21 20 19 19 19 20 19 19 19 18 18 18 17 17
30 30 27 27 28 27 25 25 25 24 23 23 23 23 23 23 23 22 22 22 24 24 25 26 26 24 23 23 22 22 21 20 21 21 21 20 20 20 20 20 19 19 19
32 31 28 28 28 29 28 26 26 24 24 25 25 24 23 23 23 22 22 21 22 22 24 24 25 24 24 24 24 24 23 23 23 23 23 23 22 22 22 21 21 21 22
32 32 30 30 28 29 29 28 27 25 26 26 25 24 24 24 23 23 22 22 21 22 24 24 23 24 24 25 25 24 24 24 24 24 24 24 24 24 23 23 23 24 24
31 31 32 31 29 29 29 29 27 27 27 27 26 25 25 25 23 23 23 23 22 22 23 24 25 25 24 25 25 26 26 26 25 25 25 25 24 24 25 24 25 25 25
31 31 31 29 29 29 28 28 28 27 27 28 27 25 24 25 24 23 24 24 24 23 23 24 25 25 25 26 27 27 27 26 26 27 27 27 26 26 26 26 27 27 28
29 30 30 30 29 30 30 29 29 28 29 29 27 27 27 25 23 23 24 24 24 24 24 24 25 26 27 27 27 28 29 29 29 29 28 27 27 28 28 29 29 30 30
28 28 28 29 31 31 31 30 30 29 28 28 27 28 27 26 25 24 25 24 24 24 24 24 25 25 27 28 29 30 30 30 30 30 30 29 29 30 31 31 31 32 32
27 28 28 29 30 30 30 30 30 30 29 29 28 28 28 27 26 24 25 25 25 25 25 24 25 26 27 27 28 30 31 31 32 32 32 32 33 33 33 32 33 33 33
26 27 28 28 29 29 29 30 30 29 28 29 29 28 28 27 25 25 25 24 25 25 26 25 25 26 27 28 28 28 29 30 31 33 34 35 35 35 34 35 35 35 35
26 26 27 27 28 28 29 29 29 30 29 29 28 28 27 26 25 25 24 25 26 26 27 28 27 26 27 29 29 30 31 32 31 32 33 35 36 36 36 36 35 36 36
Wind_Direction
302 299 291 270 259 248 240 238 239 241 244 246 249 251 254 261 268 274 278 282 287 289 291 286 281 276 272 270 268 261 245 229 217 204 185 116 74 56 59 58 55 50 43
294 288 282 269 258 251 246 243 242 243 245 245 248 251 254 260 265 271 277 281 286 287 289 287 282 278 274 272 267 260 253 236 218 202 193 148 56 44 49 49 50 49 43
282 275 273 265 257 252 248 245 244 245 246 247 248 251 255 259 264 269 273 278 283 285 286 286 282 278 273 273 268 262 256 247 230 211 209 186 49 35 34 38 46 46 43
276 270 268 264 258 252 250 247 245 245 248 249 250 252 254 257 262 267 271 276 281 281 282 282 281 277 273 272 268 264 259 251 241 226 233 259 14 17 23 34 41 35 31
274 269 264 262 258 254 252 251 247 246 247 249 251 252 254 257 260 265 270 274 277 277 278 278 277 276 274 272 268 264 259 250 247 242 246 266 288 328 342 2 16 7 5
271 268 262 260 258 254 253 252 250 248 249 250 250 253 254 255 259 263 268 271 274 274 274 274 274 274 272 271 268 264 258 250 250 248 247 257 259 266 285 307 319 320 323
271 268 263 260 257 256 254 252 251 250 251 251 250 252 254 256 259 261 264 267 270 270 270 270 271 272 271 269 267 264 259 254 252 252 252 253 257 266 271 281 297 311 311
270 269 262 258 255 254 254 253 250 250 253 252 252 252 252 254 257 259 261 264 266 267 266 266 268 269 267 266 266 263 259 257 253 254 252 251 256 263 267 271 291 304 307
267 264 259 254 253 252 253 253 251 252 253 252 251 251 252 254 257 260 261 263 264 263 263 263 264 265 264 263 263 261 259 257 256 253 253 251 257 259 264 267 281 291 298
267 264 258 251 248 249 251 250 249 250 252 251 250 251 251 253 257 259 260 262 262 261 261 262 261 260 261 260 260 258 257 254 255 254 252 254 260 262 265 270 278 285 291
269 267 259 251 246 246 248 249 249 250 250 249 249 250 252 254 257 259 260 262 260 259 260 261 260 257 257 257 257 257 255 252 252 251 251 254 257 263 267 272 278 283 288
270 265 260 256 247 244 247 251 251 249 249 249 250 252 254 256 258 259 258 260 259 258 258 258 257 255 254 255 255 255 254 251 251 252 255 255 256 260 265 271 277 281 285
269 270 262 262 254 249 250 250 249 249 250 249 250 252 256 258 260 259 259 259 258 259 257 256 256 255 253 254 254 255 251 252 251 253 254 257 258 260 264 269 276 278 279
268 268 268 268 263 253 252 253 249 250 251 254 253 252 257 259 260 259 258 257 259 259 257 255 255 253 251 252 254 255 254 252 250 254 254 255 260 263 266 270 273 276 277
268 268 266 269 263 257 259 258 252 251 253 254 253 255 258 260 261 260 258 258 260 259 256 255 254 254 250 248 250 252 252 251 251 252 256 258 261 264 267 270 272 274 275
266 266 265 265 263 261 263 259 258 251 253 255 255 255 258 259 260 261 259 258 259 260 256 254 254 252 250 247 248 250 249 249 251 252 255 259 261 265 266 269 271 272 273
270 269 266 264 260 258 258 258 257 252 255 256 258 256 257 257 261 260 259 258 257 257 255 253 252 248 248 246 247 249 250 249 248 253 256 257 259 262 264 267 269 270 274
272 269 268 267 264 262 261 259 262 258 258 259 259 257 259 259 259 259 258 259 257 255 253 250 248 247 244 242 245 249 251 251 251 255 257 258 259 262 263 266 269 271 274
272 268 267 265 265 264 260 259 262 261 260 261 257 256 260 261 260 258 257 255 253 254 250 248 248 246 245 244 245 247 252 255 257 257 260 262 261 260 263 267 270 272 274
273 271 269 268 269 268 265 266 267 265 263 261 259 258 259 261 260 259 260 254 253 254 251 248 248 248 245 245 245 247 251 255 256 256 259 261 259 261 264 267 269 272 275
273 273 272 270 270 266 265 267 266 266 266 264 260 257 258 260 259 259 257 255 255 253 251 247 246 247 245 244 245 246 249 252 252 254 257 257 259 263 265 267 268 271 274
274 272 271 271 271 270 268 268 266 267 266 264 260 256 259 259 256 257 258 257 253 251 250 251 250 248 245 243 245 248 251 253 253 255 256 255 257 261 265 268 269 272 275
274 274 273 270 271 271 269 268 266 266 265 263 261 259 257 256 257 257 255 258 257 254 253 253 251 249 245 244 245 249 251 253 254 256 257 257 259 262 264 267 270 272 276
275 274 274 272 271 270 269 268 267 266 265 265 264 260 257 257 259 259 256 261 261 259 257 254 251 249 247 247 249 251 253 255 254 255 258 259 262 262 264 267 270 273 275
277 277 277 275 273 271 270 267 265 264 264 263 262 261 260 260 260 262 262 262 262 260 256 254 252 250 250 251 251 254 256 257 257 257 260 262 263 265 266 269 272 274 276
278 278 279 277 274 271 270 267 264 263 262 262 261 261 263 263 262 261 261 261 260 258 255 253 253 254 252 251 252 255 256 257 259 261 263 264 264 266 269 270 272 274 277